date,time,SUV Intensity [MED/Hr],UV Index,Daily total [MED],Since Last [MED]
26/05/2022,00:08:30,0.000,0.0,0.0,0.0
26/05/2022,00:09:29,0.000,0.0,0.0,0.0
26/05/2022,00:10:30,-0.001,0.0,0.0,0.0
26/05/2022,00:11:38,0.001,0.0,0.0,0.0
26/05/2022,00:12:29,0.001,0.0,0.0,0.0
26/05/2022,00:13:29,0.001,0.0,0.0,0.0
26/05/2022,00:14:38,-0.000,0.0,0.0,0.0
26/05/2022,00:16:30,-0.000,0.0,0.0,0.0
26/05/2022,00:17:30,0.000,0.0,0.0,0.0
26/05/2022,00:18:30,0.000,0.0,0.0,0.0
26/05/2022,00:19:30,0.000,0.0,0.0,0.0
26/05/2022,00:20:38,-0.001,0.0,0.0,0.0
26/05/2022,00:21:28,0.000,0.0,0.0,0.0
26/05/2022,00:22:30,0.000,0.0,0.0,0.0
26/05/2022,00:23:30,-0.001,0.0,0.0,0.0
26/05/2022,00:24:30,0.001,0.0,0.0,0.0
26/05/2022,00:25:30,0.000,0.0,0.0,0.0
26/05/2022,00:26:30,-0.001,0.0,0.0,0.0
26/05/2022,00:27:29,0.000,0.0,0.0,0.0
26/05/2022,00:28:30,0.001,0.0,0.0,0.0
26/05/2022,00:29:30,0.000,0.0,0.0,0.0
26/05/2022,00:30:38,-0.000,0.0,0.0,0.0
26/05/2022,00:31:29,0.001,0.0,0.0,0.0
26/05/2022,00:32:29,0.000,0.0,0.0,0.0
26/05/2022,00:33:38,-0.000,0.0,0.0,0.0
26/05/2022,00:34:30,0.000,0.0,0.0,0.0
26/05/2022,00:35:30,0.001,0.0,0.0,0.0
26/05/2022,00:36:29,0.000,0.0,0.0,0.0
26/05/2022,00:37:30,0.000,0.0,0.0,0.0
26/05/2022,00:38:30,0.001,0.0,0.0,0.0
26/05/2022,00:39:30,0.000,0.0,0.0,0.0
26/05/2022,00:40:30,0.000,0.0,0.0,0.0
26/05/2022,00:41:32,0.000,0.0,0.0,0.0
26/05/2022,00:42:29,0.000,0.0,0.0,0.0
26/05/2022,00:43:38,0.000,0.0,0.0,0.0
26/05/2022,00:44:29,0.001,0.0,0.0,0.0
26/05/2022,00:45:30,0.000,0.0,0.0,0.0
26/05/2022,00:46:30,0.001,0.0,0.0,0.0
26/05/2022,00:47:29,0.000,0.0,0.0,0.0
26/05/2022,00:48:30,0.000,0.0,0.0,0.0
26/05/2022,00:49:30,0.000,0.0,0.0,0.0
26/05/2022,00:50:30,0.001,0.0,0.0,0.0
26/05/2022,00:51:29,0.000,0.0,0.0,0.0
26/05/2022,00:52:30,-0.001,0.0,0.0,0.0
26/05/2022,00:53:29,0.000,0.0,0.0,0.0
26/05/2022,00:54:29,0.000,0.0,0.0,0.0
26/05/2022,00:55:30,0.000,0.0,0.0,0.0
26/05/2022,00:56:30,0.000,0.0,0.0,0.0
26/05/2022,00:57:30,0.000,0.0,0.0,0.0
26/05/2022,00:58:30,0.001,0.0,0.0,0.0
26/05/2022,00:59:38,0.000,0.0,0.0,0.0
26/05/2022,01:00:29,0.000,0.0,0.0,0.0
26/05/2022,01:01:29,0.001,0.0,0.0,0.0
26/05/2022,01:02:30,0.000,0.0,0.0,0.0
26/05/2022,01:03:29,0.000,0.0,0.0,0.0
26/05/2022,01:04:30,0.001,0.0,0.0,0.0
26/05/2022,01:05:30,0.000,0.0,0.0,0.0
26/05/2022,01:06:30,0.000,0.0,0.0,0.0
26/05/2022,01:07:30,-0.001,0.0,0.0,0.0
26/05/2022,01:08:30,0.000,0.0,0.0,0.0
26/05/2022,01:09:29,0.000,0.0,0.0,0.0
26/05/2022,01:10:30,0.001,0.0,0.0,0.0
26/05/2022,01:11:30,0.000,0.0,0.0,0.0
26/05/2022,01:12:38,0.001,0.0,0.0,0.0
26/05/2022,01:13:29,0.001,0.0,0.0,0.0
26/05/2022,01:14:30,0.001,0.0,0.0,0.0
26/05/2022,01:15:30,0.000,0.0,0.0,0.0
26/05/2022,01:16:30,0.002,0.0,0.0,0.0
26/05/2022,01:17:30,0.000,0.0,0.0,0.0
26/05/2022,01:18:30,0.000,0.0,0.0,0.0
26/05/2022,01:19:30,0.000,0.0,0.0,0.0
26/05/2022,01:20:30,-0.001,0.0,0.0,0.0
26/05/2022,01:21:30,-0.000,0.0,0.0,0.0
26/05/2022,01:22:30,0.000,0.0,0.0,0.0
26/05/2022,01:23:30,0.001,0.0,0.0,0.0
26/05/2022,01:24:30,0.000,0.0,0.0,0.0
26/05/2022,01:25:30,0.000,0.0,0.0,0.0
26/05/2022,01:26:38,0.000,0.0,0.0,0.0
26/05/2022,01:28:30,0.001,0.0,0.0,0.0
26/05/2022,01:29:30,-0.000,0.0,0.0,0.0
26/05/2022,01:30:30,0.000,0.0,0.0,0.0
26/05/2022,01:31:30,0.000,0.0,0.0,0.0
26/05/2022,01:32:30,0.001,0.0,0.0,0.0
26/05/2022,01:33:30,0.000,0.0,0.0,0.0
26/05/2022,01:34:30,0.000,0.0,0.0,0.0
26/05/2022,01:35:30,0.000,0.0,0.0,0.0
26/05/2022,01:36:30,0.001,0.0,0.0,0.0
26/05/2022,01:37:29,0.000,0.0,0.0,0.0
26/05/2022,01:38:30,0.001,0.0,0.0,0.0
26/05/2022,01:39:38,-0.001,0.0,0.0,0.0
26/05/2022,01:40:29,0.001,0.0,0.0,0.0
26/05/2022,01:41:29,0.001,0.0,0.0,0.0
26/05/2022,01:42:30,0.000,0.0,0.0,0.0
26/05/2022,01:43:30,0.000,0.0,0.0,0.0
26/05/2022,01:44:30,0.000,0.0,0.0,0.0
26/05/2022,01:45:30,0.000,0.0,0.0,0.0
26/05/2022,01:46:30,-0.001,0.0,0.0,0.0
26/05/2022,01:47:30,0.001,0.0,0.0,0.0
26/05/2022,01:48:30,-0.001,0.0,0.0,0.0
26/05/2022,01:49:38,0.000,0.0,0.0,0.0
26/05/2022,01:50:30,0.000,0.0,0.0,0.0
26/05/2022,01:51:30,0.000,0.0,0.0,0.0
26/05/2022,01:52:38,0.000,0.0,0.0,0.0
26/05/2022,01:53:29,0.001,0.0,0.0,0.0
26/05/2022,01:54:30,0.000,0.0,0.0,0.0
26/05/2022,01:55:38,-0.001,0.0,0.0,0.0
26/05/2022,01:57:31,0.001,0.0,0.0,0.0
26/05/2022,01:58:39,0.001,0.0,0.0,0.0
26/05/2022,01:59:30,0.001,0.0,0.0,0.0
26/05/2022,02:00:30,0.000,0.0,0.0,0.0
26/05/2022,02:01:30,0.000,0.0,0.0,0.0
26/05/2022,02:02:30,0.000,0.0,0.0,0.0
26/05/2022,02:03:29,0.000,0.0,0.0,0.0
26/05/2022,02:04:30,0.000,0.0,0.0,0.0
26/05/2022,02:05:30,0.000,0.0,0.0,0.0
26/05/2022,02:06:30,0.001,0.0,0.0,0.0
26/05/2022,02:07:30,0.000,0.0,0.0,0.0
26/05/2022,02:08:38,0.000,0.0,0.0,0.0
26/05/2022,02:09:29,0.000,0.0,0.0,0.0
26/05/2022,02:10:30,0.000,0.0,0.0,0.0
26/05/2022,02:11:30,-0.001,0.0,0.0,0.0
26/05/2022,02:12:30,0.000,0.0,0.0,0.0
26/05/2022,02:13:30,0.000,0.0,0.0,0.0
26/05/2022,02:14:30,0.000,0.0,0.0,0.0
26/05/2022,02:15:30,0.000,0.0,0.0,0.0
26/05/2022,02:16:30,-0.001,0.0,0.0,0.0
26/05/2022,02:17:30,0.000,0.0,0.0,0.0
26/05/2022,02:18:30,0.000,0.0,0.0,0.0
26/05/2022,02:19:30,-0.001,0.0,0.0,0.0
26/05/2022,02:20:30,0.001,0.0,0.0,0.0
26/05/2022,02:21:38,0.001,0.0,0.0,0.0
26/05/2022,02:22:30,0.000,0.0,0.0,0.0
26/05/2022,02:23:30,0.000,0.0,0.0,0.0
26/05/2022,02:24:30,0.000,0.0,0.0,0.0
26/05/2022,02:25:30,0.000,0.0,0.0,0.0
26/05/2022,02:26:30,0.000,0.0,0.0,0.0
26/05/2022,02:27:30,0.000,0.0,0.0,0.0
26/05/2022,02:28:30,-0.001,0.0,0.0,0.0
26/05/2022,02:29:30,0.000,0.0,0.0,0.0
26/05/2022,02:30:30,0.000,0.0,0.0,0.0
26/05/2022,02:31:30,0.000,0.0,0.0,0.0
26/05/2022,02:32:30,0.000,0.0,0.0,0.0
26/05/2022,02:33:31,0.001,0.0,0.0,0.0
26/05/2022,02:34:30,0.001,0.0,0.0,0.0
26/05/2022,02:35:38,0.001,0.0,0.0,0.0
26/05/2022,02:36:29,0.000,0.0,0.0,0.0
26/05/2022,02:37:38,0.000,0.0,0.0,0.0
26/05/2022,02:38:38,0.000,0.0,0.0,0.0
26/05/2022,02:39:30,-0.001,0.0,0.0,0.0
26/05/2022,02:40:29,0.000,0.0,0.0,0.0
26/05/2022,02:41:47,0.000,0.0,0.0,0.0
26/05/2022,02:43:30,0.001,0.0,0.0,0.0
26/05/2022,02:44:38,0.001,0.0,0.0,0.0
26/05/2022,02:46:30,0.000,0.0,0.0,0.0
26/05/2022,02:47:30,0.000,0.0,0.0,0.0
26/05/2022,02:48:38,0.001,0.0,0.0,0.0
26/05/2022,02:50:31,0.001,0.0,0.0,0.0
26/05/2022,02:51:30,0.001,0.0,0.0,0.0
26/05/2022,02:52:30,0.000,0.0,0.0,0.0
26/05/2022,02:53:30,0.000,0.0,0.0,0.0
26/05/2022,02:54:30,0.001,0.0,0.0,0.0
26/05/2022,02:55:30,-0.001,0.0,0.0,0.0
26/05/2022,02:56:30,0.001,0.0,0.0,0.0
26/05/2022,02:57:30,0.001,0.0,0.0,0.0
26/05/2022,02:58:37,0.000,0.0,0.0,0.0
26/05/2022,02:59:29,0.000,0.0,0.0,0.0
26/05/2022,03:00:30,0.000,0.0,0.0,0.0
26/05/2022,03:01:30,0.001,0.0,0.0,0.0
26/05/2022,03:02:30,0.001,0.0,0.0,0.0
26/05/2022,03:03:30,0.000,0.0,0.0,0.0
26/05/2022,03:04:38,0.000,0.0,0.0,0.0
26/05/2022,03:06:31,0.001,0.0,0.0,0.0
26/05/2022,03:07:30,0.001,0.0,0.0,0.0
26/05/2022,03:08:39,0.001,0.0,0.0,0.0
26/05/2022,03:10:31,0.000,0.0,0.0,0.0
26/05/2022,03:11:30,0.001,0.0,0.0,0.0
26/05/2022,03:12:30,0.000,0.0,0.0,0.0
26/05/2022,03:13:30,0.001,0.0,0.0,0.0
26/05/2022,03:14:30,0.001,0.0,0.0,0.0
26/05/2022,03:15:30,0.001,0.0,0.0,0.0
26/05/2022,03:16:30,0.001,0.0,0.0,0.0
26/05/2022,03:17:30,0.000,0.0,0.0,0.0
26/05/2022,03:18:30,-0.000,0.0,0.0,0.0
26/05/2022,03:19:30,0.001,0.0,0.0,0.0
26/05/2022,03:20:30,0.000,0.0,0.0,0.0
26/05/2022,03:21:30,0.001,0.0,0.0,0.0
26/05/2022,03:22:30,-0.000,0.0,0.0,0.0
26/05/2022,03:23:30,0.000,0.0,0.0,0.0
26/05/2022,03:24:30,0.000,0.0,0.0,0.0
26/05/2022,03:25:30,0.000,0.0,0.0,0.0
26/05/2022,03:26:30,0.000,0.0,0.0,0.0
26/05/2022,03:27:30,0.000,0.0,0.0,0.0
26/05/2022,03:28:30,0.001,0.0,0.0,0.0
26/05/2022,03:29:30,0.000,0.0,0.0,0.0
26/05/2022,03:30:30,0.000,0.0,0.0,0.0
26/05/2022,03:31:30,0.000,0.0,0.0,0.0
26/05/2022,03:32:30,0.001,0.0,0.0,0.0
26/05/2022,03:33:30,0.000,0.0,0.0,0.0
26/05/2022,03:34:30,0.002,0.0,0.0,0.0
26/05/2022,03:35:30,0.001,0.0,0.0,0.0
26/05/2022,03:36:30,0.000,0.0,0.0,0.0
26/05/2022,03:37:38,0.001,0.0,0.0,0.0
26/05/2022,03:39:31,-0.000,0.0,0.0,0.0
26/05/2022,03:40:30,0.002,0.0,0.0,0.0
26/05/2022,03:41:30,0.001,0.0,0.0,0.0
26/05/2022,03:42:31,0.001,0.0,0.0,0.0
26/05/2022,03:43:30,-0.000,0.0,0.0,0.0
26/05/2022,03:44:17,0.001,0.0,0.0,0.0
26/05/2022,03:45:31,0.001,0.0,0.0,0.0
26/05/2022,03:46:30,0.002,0.0,0.0,0.0
26/05/2022,03:47:38,0.001,0.0,0.0,0.0
26/05/2022,03:49:30,0.000,0.0,0.0,0.0
26/05/2022,03:50:38,0.001,0.0,0.0,0.0
26/05/2022,03:51:30,0.002,0.0,0.0,0.0
26/05/2022,03:52:30,0.002,0.0,0.0,0.0
26/05/2022,03:53:40,0.001,0.0,0.0,0.0
26/05/2022,03:55:30,0.001,0.0,0.0,0.0
26/05/2022,03:56:30,0.002,0.0,0.0,0.0
26/05/2022,03:57:30,0.002,0.0,0.0,0.0
26/05/2022,03:58:30,0.002,0.0,0.0,0.0
26/05/2022,03:59:30,0.002,0.0,0.0,0.0
26/05/2022,04:00:39,0.002,0.0,0.0,0.0
26/05/2022,04:01:30,0.002,0.0,0.0,0.0
26/05/2022,04:02:30,0.002,0.0,0.0,0.0
26/05/2022,04:03:30,0.003,0.0,0.0,0.0
26/05/2022,04:04:31,0.002,0.0,0.0,0.0
26/05/2022,04:05:30,0.003,0.0,0.0,0.0
26/05/2022,04:06:30,0.002,0.0,0.0,0.0
26/05/2022,04:07:30,0.003,0.0,0.0,0.0
26/05/2022,04:08:30,0.003,0.0,0.0,0.0
26/05/2022,04:09:30,0.003,0.0,0.0,0.0
26/05/2022,04:10:30,0.004,0.0,0.0,0.0
26/05/2022,04:11:30,0.004,0.0,0.0,0.0
26/05/2022,04:12:30,0.004,0.0,0.0,0.0
26/05/2022,04:13:30,0.004,0.0,0.0,0.0
26/05/2022,04:14:30,0.005,0.0,0.0,0.0
26/05/2022,04:15:30,0.005,0.0,0.0,0.0
26/05/2022,04:16:40,0.005,0.0,0.0,0.0
26/05/2022,04:18:31,0.005,0.0,0.0,0.0
26/05/2022,04:19:30,0.006,0.0,0.0,0.0
26/05/2022,04:20:30,0.005,0.0,0.0,0.0
26/05/2022,04:21:30,0.006,0.0,0.0,0.0
26/05/2022,04:22:30,0.006,0.0,0.0,0.0
26/05/2022,04:23:38,0.007,0.0,0.0,0.0
26/05/2022,04:24:30,0.006,0.0,0.0,0.0
26/05/2022,04:25:30,0.006,0.0,0.0,0.0
26/05/2022,04:26:30,0.007,0.0,0.0,0.0
26/05/2022,04:27:31,0.008,0.0,0.001,0.001
26/05/2022,04:28:30,0.008,0.0,0.001,0.0
26/05/2022,04:29:38,0.008,0.0,0.001,0.0
26/05/2022,04:31:39,0.009,0.0,0.001,0.0
26/05/2022,04:33:31,0.009,0.0,0.001,0.0
26/05/2022,04:34:31,0.010,0.0,0.002,0.001
26/05/2022,04:35:31,0.010,0.0,0.002,0.0
26/05/2022,04:36:30,0.010,0.0,0.002,0.0
26/05/2022,04:37:30,0.012,0.0,0.002,0.0
26/05/2022,04:38:30,0.011,0.0,0.002,0.0
26/05/2022,04:39:30,0.012,0.0,0.002,0.0
26/05/2022,04:40:30,0.012,0.0,0.003,0.001
26/05/2022,04:41:37,0.012,0.0,0.003,0.0
26/05/2022,04:42:29,0.014,0.0,0.003,0.0
26/05/2022,04:43:30,0.012,0.0,0.003,0.0
26/05/2022,04:44:30,0.014,0.0,0.003,0.0
26/05/2022,04:45:30,0.014,0.0,0.004,0.001
26/05/2022,04:46:31,0.014,0.0,0.004,0.0
26/05/2022,04:47:30,0.015,0.0,0.004,0.0
26/05/2022,04:48:30,0.016,0.0,0.004,0.0
26/05/2022,04:49:30,0.016,0.0,0.005,0.001
26/05/2022,04:50:30,0.017,0.0,0.005,0.0
26/05/2022,04:51:31,0.017,0.0,0.005,0.0
26/05/2022,04:52:30,0.018,0.0,0.006,0.001
26/05/2022,04:53:38,0.018,0.0,0.006,0.0
26/05/2022,04:54:29,0.020,0.0,0.006,0.0
26/05/2022,04:55:30,0.019,0.0,0.006,0.0
26/05/2022,04:56:30,0.021,0.0,0.007,0.001
26/05/2022,04:57:30,0.021,0.0,0.007,0.0
26/05/2022,04:58:30,0.022,0.0,0.007,0.0
26/05/2022,04:59:31,0.021,0.0,0.008,0.001
26/05/2022,05:00:30,0.023,0.0,0.008,0.0
26/05/2022,05:01:30,0.024,0.0,0.009,0.001
26/05/2022,05:02:30,0.024,0.0,0.009,0.0
26/05/2022,05:03:39,0.025,0.0,0.009,0.0
26/05/2022,05:05:31,0.027,0.0,0.01,0.001
26/05/2022,05:06:37,0.027,0.0,0.011,0.001
26/05/2022,05:07:29,0.027,0.0,0.011,0.0
26/05/2022,05:08:30,0.029,0.0,0.012,0.001
26/05/2022,05:09:30,0.029,0.0,0.012,0.0
26/05/2022,05:10:30,0.030,0.0,0.013,0.001
26/05/2022,05:11:30,0.031,0.0,0.013,0.0
26/05/2022,05:12:30,0.033,0.0,0.014,0.001
26/05/2022,05:13:31,0.034,0.0,0.014,0.0
26/05/2022,05:14:30,0.034,0.0,0.015,0.001
26/05/2022,05:15:30,0.033,0.0,0.015,0.0
26/05/2022,05:16:30,0.035,0.0,0.016,0.001
26/05/2022,05:17:30,0.037,0.0,0.017,0.001
26/05/2022,05:18:30,0.038,0.0,0.017,0.0
26/05/2022,05:19:38,0.038,0.0,0.018,0.001
26/05/2022,05:20:30,0.040,0.0,0.018,0.0
26/05/2022,05:21:31,0.042,0.0,0.019,0.001
26/05/2022,05:22:30,0.043,0.0,0.02,0.001
26/05/2022,05:23:30,0.044,0.0,0.021,0.001
26/05/2022,05:24:31,0.039,0.0,0.021,0.0
26/05/2022,05:25:30,0.037,0.0,0.022,0.001
26/05/2022,05:26:30,0.037,0.0,0.022,0.0
26/05/2022,05:27:31,0.037,0.0,0.023,0.001
26/05/2022,05:28:31,0.039,0.0,0.024,0.001
26/05/2022,05:29:30,0.039,0.0,0.024,0.0
26/05/2022,05:30:30,0.040,0.0,0.025,0.001
26/05/2022,05:31:30,0.040,0.0,0.026,0.001
26/05/2022,05:32:39,0.044,0.0,0.026,0.0
26/05/2022,05:34:31,0.046,0.0,0.028,0.002
26/05/2022,05:35:31,0.044,0.0,0.029,0.001
26/05/2022,05:36:30,0.047,0.0,0.029,0.0
26/05/2022,05:37:30,0.048,0.0,0.03,0.001
26/05/2022,05:38:30,0.048,0.0,0.031,0.001
26/05/2022,05:39:30,0.051,0.0,0.032,0.001
26/05/2022,05:40:30,0.056,0.0,0.033,0.001
26/05/2022,05:41:30,0.055,0.0,0.034,0.001
26/05/2022,05:42:38,0.052,0.0,0.035,0.001
26/05/2022,05:43:30,0.055,0.0,0.035,0.0
26/05/2022,05:44:30,0.062,0.0,0.036,0.001
26/05/2022,05:45:30,0.062,0.0,0.037,0.001
26/05/2022,05:46:31,0.065,0.0,0.038,0.001
26/05/2022,05:47:30,0.071,0.0,0.04,0.002
26/05/2022,05:48:30,0.075,0.0,0.041,0.001
26/05/2022,05:49:30,0.077,0.0,0.042,0.001
26/05/2022,05:50:31,0.082,0.0,0.043,0.001
26/05/2022,05:51:31,0.086,0.0,0.045,0.002
26/05/2022,05:52:30,0.086,0.0,0.046,0.001
26/05/2022,05:53:30,0.089,0.0,0.048,0.002
26/05/2022,05:54:30,0.093,0.0,0.049,0.001
26/05/2022,05:55:30,0.095,0.0,0.051,0.002
26/05/2022,05:56:31,0.097,0.0,0.052,0.001
26/05/2022,05:57:30,0.099,0.0,0.054,0.002
26/05/2022,05:58:30,0.101,0.0,0.056,0.002
26/05/2022,05:59:40,0.103,0.0,0.058,0.002
26/05/2022,06:01:31,0.106,0.0,0.061,0.003
26/05/2022,06:02:31,0.109,0.0,0.063,0.002
26/05/2022,06:03:30,0.113,0.0,0.065,0.002
26/05/2022,06:04:30,0.117,0.0,0.066,0.001
26/05/2022,06:05:31,0.119,0.0,0.068,0.002
26/05/2022,06:06:30,0.120,0.0,0.07,0.002
26/05/2022,06:07:30,0.124,0.0,0.072,0.002
26/05/2022,06:08:31,0.126,0.0,0.075,0.003
26/05/2022,06:09:39,0.128,0.0,0.077,0.002
26/05/2022,06:10:31,0.130,0.0,0.079,0.002
26/05/2022,06:11:31,0.132,0.0,0.081,0.002
26/05/2022,06:12:38,0.135,0.0,0.083,0.002
26/05/2022,06:13:29,0.138,0.0,0.085,0.002
26/05/2022,06:14:30,0.139,0.0,0.088,0.003
26/05/2022,06:15:31,0.142,0.0,0.09,0.002
26/05/2022,06:16:30,0.147,0.0,0.093,0.003
26/05/2022,06:17:30,0.146,0.0,0.095,0.002
26/05/2022,06:18:30,0.149,0.0,0.097,0.002
26/05/2022,06:19:39,0.154,0.0,0.1,0.003
26/05/2022,06:21:31,0.161,0.0,0.105,0.005
26/05/2022,06:22:30,0.163,0.0,0.108,0.003
26/05/2022,06:23:30,0.168,0.0,0.111,0.003
26/05/2022,06:24:30,0.171,0.0,0.113,0.002
26/05/2022,06:25:31,0.173,0.0,0.116,0.003
26/05/2022,06:26:30,0.176,0.0,0.119,0.003
26/05/2022,06:27:31,0.183,0.0,0.122,0.003
26/05/2022,06:28:30,0.186,0.0,0.125,0.003
26/05/2022,06:29:30,0.190,0.0,0.128,0.003
26/05/2022,06:30:30,0.191,0.0,0.132,0.004
26/05/2022,06:31:32,0.191,0.0,0.135,0.003
26/05/2022,06:32:39,0.188,0.0,0.138,0.003
26/05/2022,06:34:31,0.194,0.0,0.144,0.006
26/05/2022,06:35:30,0.192,0.0,0.147,0.003
26/05/2022,06:36:30,0.197,0.0,0.151,0.004
26/05/2022,06:37:30,0.191,0.0,0.154,0.003
26/05/2022,06:38:31,0.198,0.0,0.157,0.003
26/05/2022,06:39:30,0.203,0.0,0.16,0.003
26/05/2022,06:40:30,0.202,0.0,0.164,0.004
26/05/2022,06:41:31,0.209,0.0,0.167,0.003
26/05/2022,06:42:39,0.212,0.0,0.171,0.004
26/05/2022,06:43:30,0.213,0.0,0.174,0.003
26/05/2022,06:44:30,0.219,1.0,0.178,0.004
26/05/2022,06:45:31,0.221,1.0,0.182,0.004
26/05/2022,06:46:30,0.224,1.0,0.185,0.003
26/05/2022,06:47:30,0.231,1.0,0.189,0.004
26/05/2022,06:48:31,0.226,1.0,0.193,0.004
26/05/2022,06:49:30,0.220,1.0,0.196,0.003
26/05/2022,06:50:37,0.221,1.0,0.201,0.005
26/05/2022,06:51:31,0.219,1.0,0.204,0.003
26/05/2022,06:52:31,0.210,0.0,0.207,0.003
26/05/2022,06:53:31,0.220,1.0,0.211,0.004
26/05/2022,06:54:31,0.225,1.0,0.215,0.004
26/05/2022,06:55:30,0.229,1.0,0.219,0.004
26/05/2022,06:56:30,0.240,1.0,0.222,0.003
26/05/2022,06:57:30,0.238,1.0,0.226,0.004
26/05/2022,06:58:38,0.226,1.0,0.231,0.005
26/05/2022,06:59:30,0.230,1.0,0.234,0.003
26/05/2022,07:00:30,0.225,1.0,0.238,0.004
26/05/2022,07:01:31,0.214,0.0,0.242,0.004
26/05/2022,07:02:30,0.210,0.0,0.245,0.003
26/05/2022,07:03:32,0.223,1.0,0.249,0.004
26/05/2022,07:04:30,0.224,1.0,0.252,0.003
26/05/2022,07:05:31,0.223,1.0,0.256,0.004
26/05/2022,07:06:30,0.222,1.0,0.26,0.004
26/05/2022,07:07:31,0.220,1.0,0.264,0.004
26/05/2022,07:08:39,0.206,0.0,0.268,0.004
26/05/2022,07:09:30,0.227,1.0,0.271,0.003
26/05/2022,07:10:32,0.256,1.0,0.275,0.004
26/05/2022,07:11:38,0.266,1.0,0.28,0.005
26/05/2022,07:12:29,0.274,1.0,0.283,0.003
26/05/2022,07:13:31,0.275,1.0,0.288,0.005
26/05/2022,07:14:30,0.278,1.0,0.293,0.005
26/05/2022,07:15:30,0.294,1.0,0.297,0.004
26/05/2022,07:16:31,0.286,1.0,0.302,0.005
26/05/2022,07:17:30,0.289,1.0,0.307,0.005
26/05/2022,07:18:39,0.285,1.0,0.313,0.006
26/05/2022,07:20:31,0.323,1.0,0.322,0.009
26/05/2022,07:21:39,0.328,1.0,0.328,0.006
26/05/2022,07:23:31,0.356,1.0,0.339,0.011
26/05/2022,07:24:39,0.334,1.0,0.345,0.006
26/05/2022,07:26:31,0.375,1.0,0.356,0.011
26/05/2022,07:27:31,0.389,1.0,0.362,0.006
26/05/2022,07:28:33,0.414,1.0,0.369,0.007
26/05/2022,07:29:30,0.416,1.0,0.376,0.007
26/05/2022,07:30:30,0.395,1.0,0.383,0.007
26/05/2022,07:31:31,0.398,1.0,0.389,0.006
26/05/2022,07:32:31,0.408,1.0,0.396,0.007
26/05/2022,07:33:30,0.392,1.0,0.403,0.007
26/05/2022,07:34:31,0.416,1.0,0.41,0.007
26/05/2022,07:35:31,0.408,1.0,0.417,0.007
26/05/2022,07:36:31,0.446,1.0,0.424,0.007
26/05/2022,07:37:40,0.430,1.0,0.432,0.008
26/05/2022,07:39:31,0.486,1.0,0.446,0.014
26/05/2022,07:40:31,0.488,1.0,0.454,0.008
26/05/2022,07:41:31,0.430,1.0,0.462,0.008
26/05/2022,07:42:31,0.418,1.0,0.469,0.007
26/05/2022,07:43:31,0.401,1.0,0.476,0.007
26/05/2022,07:44:31,0.407,1.0,0.483,0.007
26/05/2022,07:45:32,0.354,1.0,0.49,0.007
26/05/2022,07:46:30,0.332,1.0,0.495,0.005
26/05/2022,07:47:39,0.374,1.0,0.502,0.007
26/05/2022,07:49:32,0.384,1.0,0.513,0.011
26/05/2022,07:50:30,0.357,1.0,0.519,0.006
26/05/2022,07:51:30,0.420,1.0,0.526,0.007
26/05/2022,07:52:31,0.420,1.0,0.533,0.007
26/05/2022,07:53:30,0.423,1.0,0.54,0.007
26/05/2022,07:54:30,0.516,1.0,0.547,0.007
26/05/2022,07:55:31,0.554,1.0,0.556,0.009
26/05/2022,07:56:31,0.525,1.0,0.566,0.01
26/05/2022,07:57:30,0.543,1.0,0.574,0.008
26/05/2022,07:58:30,0.564,1.0,0.584,0.01
26/05/2022,07:59:39,0.554,1.0,0.594,0.01
26/05/2022,08:00:30,0.565,1.0,0.602,0.008
26/05/2022,08:01:38,0.567,1.0,0.613,0.011
26/05/2022,08:02:30,0.526,1.0,0.621,0.008
26/05/2022,08:03:30,0.473,1.0,0.629,0.008
26/05/2022,08:04:31,0.467,1.0,0.637,0.008
26/05/2022,08:05:31,0.492,1.0,0.645,0.008
26/05/2022,08:06:31,0.486,1.0,0.653,0.008
26/05/2022,08:07:22,0.446,1.0,0.66,0.007
26/05/2022,08:08:31,0.427,1.0,0.668,0.008
26/05/2022,08:09:31,0.465,1.0,0.675,0.007
26/05/2022,08:10:31,0.484,1.0,0.683,0.008
26/05/2022,08:11:31,0.442,1.0,0.691,0.008
26/05/2022,08:12:31,0.464,1.0,0.698,0.007
26/05/2022,08:13:30,0.522,1.0,0.707,0.009
26/05/2022,08:14:31,0.583,1.0,0.716,0.009
26/05/2022,08:15:32,0.643,1.0,0.726,0.01
26/05/2022,08:16:31,0.677,2.0,0.737,0.011
26/05/2022,08:17:31,0.690,2.0,0.748,0.011
26/05/2022,08:18:30,0.704,2.0,0.76,0.012
26/05/2022,08:19:31,0.682,2.0,0.772,0.012
26/05/2022,08:20:30,0.633,1.0,0.783,0.011
26/05/2022,08:21:31,0.709,2.0,0.794,0.011
26/05/2022,08:22:30,0.719,2.0,0.806,0.012
26/05/2022,08:23:31,0.705,2.0,0.818,0.012
26/05/2022,08:24:39,0.761,2.0,0.832,0.014
26/05/2022,08:26:31,0.831,2.0,0.856,0.024
26/05/2022,08:27:31,0.822,2.0,0.87,0.014
26/05/2022,08:28:31,0.840,2.0,0.884,0.014
26/05/2022,08:29:30,0.826,2.0,0.898,0.014
26/05/2022,08:30:38,0.816,2.0,0.913,0.015
26/05/2022,08:32:31,0.867,2.0,0.939,0.026
26/05/2022,08:33:31,0.925,2.0,0.954,0.015
26/05/2022,08:34:31,0.919,2.0,0.969,0.015
26/05/2022,08:35:31,0.897,2.0,0.985,0.016
26/05/2022,08:36:30,0.923,2.0,1.0,0.015
26/05/2022,08:37:30,1.019,2.0,1.016,0.016
26/05/2022,08:38:30,0.946,2.0,1.033,0.017
26/05/2022,08:39:31,0.942,2.0,1.048,0.015
26/05/2022,08:40:39,0.933,2.0,1.065,0.017
26/05/2022,08:41:30,1.049,2.0,1.08,0.015
26/05/2022,08:42:31,1.012,2.0,1.096,0.016
26/05/2022,08:43:31,0.974,2.0,1.112,0.016
26/05/2022,08:44:31,0.908,2.0,1.127,0.015
26/05/2022,08:45:31,0.929,2.0,1.143,0.016
26/05/2022,08:46:30,0.929,2.0,1.158,0.015
26/05/2022,08:47:31,1.031,2.0,1.175,0.017
26/05/2022,08:48:30,0.847,2.0,1.191,0.016
26/05/2022,08:49:31,0.818,2.0,1.205,0.014
26/05/2022,08:50:31,0.794,2.0,1.218,0.013
26/05/2022,08:51:31,0.667,2.0,1.23,0.012
26/05/2022,08:52:31,0.770,2.0,1.242,0.012
26/05/2022,08:53:39,0.837,2.0,1.258,0.016
26/05/2022,08:54:31,0.818,2.0,1.27,0.012
26/05/2022,08:55:32,0.873,2.0,1.284,0.014
26/05/2022,08:56:39,0.825,2.0,1.3,0.016
26/05/2022,08:57:30,0.808,2.0,1.312,0.012
26/05/2022,08:58:30,0.883,2.0,1.326,0.014
26/05/2022,08:59:30,0.816,2.0,1.34,0.014
26/05/2022,09:00:31,0.736,2.0,1.353,0.013
26/05/2022,09:01:30,0.744,2.0,1.365,0.012
26/05/2022,09:02:39,0.692,2.0,1.379,0.014
26/05/2022,09:04:31,0.630,1.0,1.399,0.02
26/05/2022,09:05:31,0.679,2.0,1.41,0.011
26/05/2022,09:06:30,0.800,2.0,1.422,0.012
26/05/2022,09:07:31,0.912,2.0,1.436,0.014
26/05/2022,09:08:30,1.011,2.0,1.453,0.017
26/05/2022,09:09:39,1.084,2.0,1.472,0.019
26/05/2022,09:11:31,1.056,2.0,1.506,0.034
26/05/2022,09:12:39,1.069,2.0,1.526,0.02
26/05/2022,09:13:30,1.064,2.0,1.541,0.015
26/05/2022,09:14:31,0.996,2.0,1.559,0.018
26/05/2022,09:15:31,0.952,2.0,1.576,0.017
26/05/2022,09:16:31,0.780,2.0,1.59,0.014
26/05/2022,09:17:30,0.681,2.0,1.602,0.012
26/05/2022,09:18:31,0.562,1.0,1.612,0.01
26/05/2022,09:19:30,0.467,1.0,1.621,0.009
26/05/2022,09:20:30,0.424,1.0,1.628,0.007
26/05/2022,09:21:31,0.434,1.0,1.635,0.007
26/05/2022,09:22:38,0.412,1.0,1.643,0.008
26/05/2022,09:23:30,0.414,1.0,1.649,0.006
26/05/2022,09:24:30,0.434,1.0,1.656,0.007
26/05/2022,09:25:39,0.369,1.0,1.664,0.008
26/05/2022,09:26:30,0.360,1.0,1.669,0.005
26/05/2022,09:27:30,0.369,1.0,1.675,0.006
26/05/2022,09:28:31,0.392,1.0,1.681,0.006
26/05/2022,09:29:31,0.482,1.0,1.689,0.008
26/05/2022,09:30:31,0.542,1.0,1.698,0.009
26/05/2022,09:31:31,0.539,1.0,1.706,0.008
26/05/2022,09:32:30,0.596,1.0,1.716,0.01
26/05/2022,09:33:31,0.566,1.0,1.726,0.01
26/05/2022,09:34:31,0.519,1.0,1.735,0.009
26/05/2022,09:35:31,0.505,1.0,1.743,0.008
26/05/2022,09:36:30,0.582,1.0,1.752,0.009
26/05/2022,09:37:31,0.558,1.0,1.762,0.01
26/05/2022,09:38:31,0.488,1.0,1.77,0.008
26/05/2022,09:39:31,0.489,1.0,1.779,0.009
26/05/2022,09:40:31,0.518,1.0,1.787,0.008
26/05/2022,09:41:39,0.665,2.0,1.798,0.011
26/05/2022,09:42:30,0.771,2.0,1.808,0.01
26/05/2022,09:43:31,0.706,2.0,1.821,0.013
26/05/2022,09:44:30,0.574,1.0,1.831,0.01
26/05/2022,09:45:30,0.553,1.0,1.841,0.01
26/05/2022,09:46:31,0.618,1.0,1.85,0.009
26/05/2022,09:47:31,0.747,2.0,1.862,0.012
26/05/2022,09:48:31,0.877,2.0,1.876,0.014
26/05/2022,09:49:30,0.923,2.0,1.891,0.015
26/05/2022,09:50:31,0.892,2.0,1.906,0.015
26/05/2022,09:51:31,0.875,2.0,1.92,0.014
26/05/2022,09:52:30,0.843,2.0,1.935,0.015
26/05/2022,09:53:31,0.843,2.0,1.949,0.014
26/05/2022,09:54:30,0.907,2.0,1.963,0.014
26/05/2022,09:55:30,0.904,2.0,1.978,0.015
26/05/2022,09:56:30,1.054,2.0,1.995,0.017
26/05/2022,09:57:39,1.156,3.0,2.017,0.022
26/05/2022,09:58:31,1.316,3.0,2.034,0.017
26/05/2022,09:59:31,1.292,3.0,2.058,0.024
26/05/2022,10:00:31,0.990,2.0,2.076,0.018
26/05/2022,10:01:47,0.879,2.0,2.097,0.021
26/05/2022,10:03:31,0.942,2.0,2.122,0.025
26/05/2022,10:04:30,1.010,2.0,2.138,0.016
26/05/2022,10:05:31,1.026,2.0,2.155,0.017
26/05/2022,10:06:30,1.173,3.0,2.173,0.018
26/05/2022,10:07:31,1.298,3.0,2.194,0.021
26/05/2022,10:08:30,1.370,3.0,2.216,0.022
26/05/2022,10:09:31,1.293,3.0,2.238,0.022
26/05/2022,10:10:31,1.156,3.0,2.259,0.021
26/05/2022,10:11:31,1.008,2.0,2.277,0.018
26/05/2022,10:12:30,1.150,3.0,2.295,0.018
26/05/2022,10:13:31,1.159,3.0,2.314,0.019
26/05/2022,10:14:39,1.221,3.0,2.337,0.023
26/05/2022,10:16:31,1.117,3.0,2.374,0.037
26/05/2022,10:17:31,1.085,2.0,2.392,0.018
26/05/2022,10:18:30,1.281,3.0,2.412,0.02
26/05/2022,10:19:31,1.290,3.0,2.434,0.022
26/05/2022,10:20:31,1.154,3.0,2.456,0.022
26/05/2022,10:21:31,0.858,2.0,2.472,0.016
26/05/2022,10:22:30,0.795,2.0,2.485,0.013
26/05/2022,10:23:31,0.631,1.0,2.497,0.012
26/05/2022,10:24:30,0.575,1.0,2.507,0.01
26/05/2022,10:25:31,0.551,1.0,2.517,0.01
26/05/2022,10:26:31,0.539,1.0,2.526,0.009
26/05/2022,10:27:31,0.546,1.0,2.535,0.009
26/05/2022,10:28:31,0.590,1.0,2.544,0.009
26/05/2022,10:29:31,0.647,1.0,2.554,0.01
26/05/2022,10:30:31,0.667,2.0,2.566,0.012
26/05/2022,10:31:30,0.709,2.0,2.577,0.011
26/05/2022,10:32:30,0.744,2.0,2.589,0.012